Location: Marengo
(51.4813°N, 109.7825°W)
Time: 21:43:55
(UTC+00:00)

Envisat - Pass Details

Date: 25 January 2022
Orbit: 764 x 765 km, 98.2° (Epoch: 21 May)

Event Time Altitude Azimuth Distance (km) Brightness Sun altitude
Rises 13:12:45 0° 9° (N) 3,244 6.3 -17.5°
Reaches altitude 10° 13:15:10 10° 3° (N) 2,314 5.4 -17.2°
Maximum altitude 13:19:54 41° 295° (WNW) 1,104 3.3 -16.4°
Drops below altitude 10° 13:24:38 10° 226° (SW) 2,300 5.1 -15.7°
Sets 13:27:02 0° 219° (SW) 3,222 6.0 -15.3°
